Other Surface Observations
Issued by NWS

Home | Current Version | Previous Version | Text Only | Print | Product List | Glossary On
Versions: 1 2 3 4 5 6 7 8 9 10 11 12 13 14 15 16 17 18 19 20 21 22 23 24 25 26 27 28 29 30 31 32 33 34 35 36 37 38 39 40 41 42 43 44 45 46 47 48 49 50
000
SXUS52 KTAE 292118
OSOTAE
OSOTAE
North Florida/South Alabama/Southwest Georgia Weather Roundup
National Weather Service Tallahassee Florida
500 PM EDT TUE JUL 29 2014

Note: "fair" indicates few or no clouds below 12,000 feet with no
significant weather and/or obstructions to visibility.

!FLZ017-115-028-034-025-292200
...North Florida...

CITY           SKY/WX    TMP DP  RH WIND       PRES   REMARKS
TALLAHASSEE    PTSUNNY   92  61  35 W9G20     29.95S HX  92
APALACHICOLA   SUNNY     87  66  49 W15       29.93F
PERRY          MOSUNNY   88  64  45 NW8       29.93S
CROSS CITY       N/A     92  69  47 W12       29.91S HX  97
HOMERVILLE     FAIR      90  63  40 NW6G16    29.91F HX  90
JACKSONVILLE   MOSUNNY   93  61  34 W9        29.87F HX  93
$$

!FLZ112-006-005-002-011-292200
...Florida Panhandle...

CITY           SKY/WX    TMP DP  RH WIND       PRES   REMARKS
MARIANNA       MOSUNNY   89  62  40 N14       29.95F
BONIFAY        FAIR      86  62  44 N9        29.97F
PANAMA CITY NW FAIR      90  63  40 NW9       29.95F HX  91
TYNDALL AFB    SUNNY     87  70  56 W14       29.96F HX  92
TYND DRONE APT FAIR      85  70  59 N17       29.94F HX  90
DE FUNIAK SPR  FAIR      87  61  42 N7        29.98F
EGLIN AFB      MOSUNNY   90  61  37 N7        29.96F
DESTIN         SUNNY     88  69  53 VRB7      29.96F HX  92
HURLBURT       MOSUNNY   89  55  31 N10       29.95F
CRESTVIEW      MOSUNNY   89  62  40 NW7       29.99F
PENSACOLA      MOSUNNY   85  61  44 NW9       29.97F
$$

!ALZ063-066-292200
...South Alabama...

CITY           SKY/WX    TMP DP  RH WIND       PRES   REMARKS
DOTHAN         MOSUNNY   86  62  44 NW10      30.01S
OZARK CAIRNS   MOSUNNY   85  60  43 NW9       29.97S
FT RUCKER HELI MOSUNNY   87  57  35 NW9       29.96S
RUCKER HELI 3  FAIR      85  60  42 NW10G16   30.00S
RUCKER HELI 2  PTSUNNY   87  58  37 N13       29.97S
FLORALA APT    PTSUNNY   88  60  38 N6        29.99F
ANDALUSIA      PTSUNNY   92  61  35 N12       29.98F HX  92
TROY           MOSUNNY   87  59  38 N13       29.99F
EUFALA         FAIR      86  61  42 W7        29.96S
MOBILE         PTSUNNY   87  64  46 NW8       30.01F
$$

!GAZ120>161-292200
...Southwest and South Central Georgia...

CITY           SKY/WX    TMP DP  RH WIND       PRES   REMARKS
THOMASVILLE    FAIR      90  61  37 W7        29.95S
BAINBRIDGE     SUNNY     91  64  40 NW10      29.95S HX  93
MOODY AFB      MOSUNNY   91  74  58 NW10      29.92F HX 100
VALDOSTA       MOSUNNY   94  59  31 VRB6      29.92F HX  93
MOULTRIE       MOSUNNY   88  59  37 NW8       29.95S
BLAKELY        MOSUNNY   90  61  37 NW9       29.96S
ALBANY         CLOUDY    91  57  31 NW10      29.96F
TIFTON         PTSUNNY   87  55  33 NW9       29.94S
FITZGERALD     FAIR      90  55  30 NW9       29.96S
CORDELE        FAIR      89  56  32 NW8       29.95S
AMERICUS       FAIR      84  57  39 NW8       29.97S
$$

!GMZ750-755-770-775-292200
...Coastal and Buoy Obs...

STATION/POSITION TIME  TEMP    WIND        PRES    VSBY  WAVE
                       AIR SEA DIR/SP/G                  HT/PER
                 (UTC) (F)     (DEG/KT/KT) (MB)    (MI)  (FT/S)
KEATON BEACH     2100   86     250/ 12/ 13 1013.5F
CEDAR KEY        2055   86     290/  9/ 12 1013.8F
C TOWER          2100   83     270/  9/ 10 1014.1F
APALACHICOLA BUO 2100   80 85  250/ 14/ 16 1013.9F         4/ 6
PANAMA CITY BUOY 1956   83 85  340/ 10/ 12 1014.4S         4/ 6
MOBILE BUOY      2048   82 87  350/ 12/ 16 1015.9F
ORANGE BCH AL BU 2100   82 85  270/ 10/ 12 1015.3F         1/ 3
$$



USA.gov is the U.S. government's official web portal to all federal, state and local government web resources and services.